User: anonymous   Login
Location: Cow Canyon Saddle
(34.2291°N, 117.6698°W)
Time: 15:58:35
(UTC-08:00)
Language:

Lacrosse 5 - Orbit

View from above orbital plane
View from above orbital plane
View from above satellite
View from above satellite

Ground track
Ground track

The orbit data is extracted from the following two-line orbital elements,

1 28646U 05016A   18009.21560193 0.00000000  00000-0  00000-0 0    06
2 28646  57.0110  77.6150 0008000 126.7556 233.2444 14.51911832    05
Epoch (UTC): 09 January 2018 05:10:28
Eccentricity: 0.0008000
inclination: 57.0110°
perigee height: 714 km
apogee height: 725 km
right ascension of ascending node: 77.6150°
argument of perigee: 126.7556°
revolutions per day: 14.51911832
mean anomaly at epoch: 233.2444°
orbit number at epoch: 0

The dashed part of the orbit path shows where the satellite is in the earth's shadow,  

DLR